Language: 


Des rapports , des résumés tant et plus, au choix de chacun....


Données statistiques de la station
Quotidien Rapport Janvier 14, 2017 Unités:  Anglais    Métrique   les deux
« Précédent Jour
Suivant Jour »
Quotidien Hebdomadaire Mensuel Annuel Actuel
  Haut: Bas: Moyen:
Température: 42.8 °F 32 °F 37 °F
Pt de rosée: 38.3 °F 27.1 °F 31.1 °F
Humidité: 94 % 0 % 79 %
Vitesse du vent: 12.5 mph 0 mph 4.7 mph
Rafales: 17.7 mph - -
Vent:- - West
Pression: 30.1 in 0 in -
Précipitation: 0 in    
Historical Graphs
 
 
Données statistiques pour Janvier 14, 2017
Heure Température Point de rosée Pression Vent Vitesse du vent Refales Humidité Pluie (taux horaire)
00:01 39.7 °F 30.4 °F 29.9 in North 4.7 mph 17.7 mph 69 % 0 in
00:06 39.7 °F 30.4 °F 29.9 in NNE 9.4 mph 13.2 mph 69 % 0 in
00:11 39.6 °F 30.6 °F 29.9 in North 8.5 mph 15.2 mph 70 % 0 in
00:16 39.6 °F 30.6 °F 29.9 in NW 7.8 mph 15.2 mph 70 % 0 in
00:21 39.4 °F 30.4 °F 29.9 in North 8.7 mph 11.2 mph 70 % 0 in
00:26 39.4 °F 30.4 °F 29.9 in NW 4.3 mph 11.4 mph 70 % 0 in
00:31 39.2 °F 30.6 °F 29.9 in North 4 mph 11.4 mph 71 % 0 in
00:36 39.2 °F 30.6 °F 29.9 in NNW 7.6 mph 11.4 mph 71 % 0 in
00:41 39.2 °F 30.9 °F 29.9 in West 6.3 mph 8.1 mph 72 % 0 in
00:46 39 °F 30.7 °F 29.9 in NW 4 mph 11 mph 72 % 0 in
00:51 39 °F 31.1 °F 29.9 in WSW 4.3 mph 11 mph 73 % 0 in
00:56 39 °F 31.1 °F 29.9 in WNW 5.6 mph 10.3 mph 73 % 0 in
01:01 38.8 °F 30.9 °F 29.9 in NNW 4.3 mph 11 mph 73 % 0 in
01:06 38.8 °F 30.9 °F 29.9 in NNE 5.6 mph 12.5 mph 73 % 0 in
01:11 38.8 °F 30.9 °F 29.9 in WNW 7.4 mph 12.5 mph 73 % 0 in
01:16 38.7 °F 30.7 °F 29.9 in NNW 9.2 mph 10.5 mph 73 % 0 in
01:21 38.7 °F 30.7 °F 29.9 in North 6 mph 12.5 mph 73 % 0 in
01:26 38.5 °F 30.6 °F 29.9 in North 3.8 mph 13.4 mph 73 % 0 in
01:31 38.5 °F 30.4 °F 29.9 in North 4.9 mph 13.4 mph 73 % 0 in
01:36 38.1 °F 30.4 °F 29.9 in NNE 5.6 mph 12.3 mph 73 % 0 in
01:41 37.9 °F 30 °F 29.9 in North 8.1 mph 12.3 mph 73 % 0 in
01:46 37.8 °F 29.8 °F 29.9 in NNE 7.2 mph 10.5 mph 73 % 0 in
01:51 37.8 °F 29.8 °F 29.9 in WNW 6 mph 8.7 mph 73 % 0 in
01:56 37.6 °F 30 °F 29.9 in WNW 3.6 mph 8.1 mph 74 % 0 in
02:02 32 °F 30 °F 0 in NNW 12.1 mph 12.1 mph 0 % 0 in
02:07 37.6 °F 30.4 °F 29.9 in NW 7.4 mph 12.1 mph 75 % 0 in
02:12 37.6 °F 30.4 °F 29.9 in WNW 8.5 mph 10.5 mph 75 % 0 in
02:17 37.6 °F 30.4 °F 29.9 in NNW 4.7 mph 8.5 mph 75 % 0 in
02:22 37.6 °F 30.4 °F 29.9 in NE 6.7 mph 9.4 mph 75 % 0 in
02:27 37.6 °F 30.4 °F 29.9 in WNW 5.8 mph 9.4 mph 75 % 0 in
02:32 37.6 °F 30.4 °F 29.9 in NW 4.9 mph 9.6 mph 75 % 0 in
02:37 37.6 °F 29.8 °F 29.9 in North 6.5 mph 9.6 mph 74 % 0 in
02:42 37.6 °F 29.8 °F 29.9 in SSW 5.6 mph 10.5 mph 74 % 0 in
02:47 37.6 °F 29.8 °F 29.9 in WNW 2.2 mph 10.5 mph 74 % 0 in
02:52 37.6 °F 29.8 °F 29.9 in WNW 3.6 mph 9.8 mph 74 % 0 in
02:57 37.2 °F 29.8 °F 29.9 in NW 3.6 mph 9.2 mph 74 % 0 in
03:02 37.6 °F 29.8 °F 29.9 in West 5.6 mph 10.3 mph 74 % 0 in
03:07 37.2 °F 29.5 °F 29.9 in NNW 4.3 mph 10.3 mph 73 % 0 in
03:12 37.2 °F 29.5 °F 29.9 in NE 4 mph 12.1 mph 73 % 0 in
03:17 37 °F 29.7 °F 29.9 in NNW 4.7 mph 12.1 mph 74 % 0 in
03:22 37 °F 29.3 °F 29.9 in North 4.9 mph 9.8 mph 73 % 0 in
03:27 36.9 °F 29.1 °F 29.9 in WNW 2.7 mph 8.1 mph 73 % 0 in
03:32 36.9 °F 29.5 °F 29.9 in WNW 3.8 mph 8.9 mph 74 % 0 in
03:37 36.9 °F 29.5 °F 29.9 in WNW 2.2 mph 8.9 mph 74 % 0 in
03:42 36.9 °F 29.5 °F 29.9 in North 6.3 mph 10.3 mph 74 % 0 in
03:47 36.9 °F 29.5 °F 29.9 in North 5.6 mph 10.7 mph 74 % 0 in
03:52 36.9 °F 29.5 °F 29.9 in NE 0.9 mph 11 mph 74 % 0 in
03:57 36.9 °F 29.5 °F 29.9 in NW 7.4 mph 11 mph 74 % 0 in
04:02 36.9 °F 28.9 °F 29.9 in West 7.8 mph 8.5 mph 73 % 0 in
04:07 36.9 °F 28.9 °F 29.9 in WNW 8.7 mph 8.7 mph 73 % 0 in
04:12 36.9 °F 28.6 °F 29.9 in WNW 5.4 mph 9.6 mph 72 % 0 in
04:17 36.7 °F 28.4 °F 29.9 in North 6.5 mph 9.6 mph 72 % 0 in
04:22 36.7 °F 28.8 °F 29.9 in West 5.4 mph 12.3 mph 73 % 0 in
04:27 36.3 °F 28.2 °F 29.9 in North 7.6 mph 12.3 mph 72 % 0 in
04:32 36.1 °F 28.4 °F 29.9 in West 5.8 mph 8.9 mph 73 % 0 in
04:33 36.1 °F 28.4 °F 29.9 in NNW 2.9 mph 8.9 mph 73 % 0 in
04:38 36.1 °F 28.4 °F 29.9 in West 3.8 mph 9.4 mph 73 % 0 in
04:43 36.1 °F 28.2 °F 29.9 in West 4.7 mph 9.4 mph 73 % 0 in
04:48 36 °F 28 °F 29.9 in West 5.6 mph 8.7 mph 73 % 0 in
04:53 35.8 °F 27.9 °F 29.9 in West 4 mph 10.7 mph 73 % 0 in
04:58 35.4 °F 27.7 °F 29.9 in West 0.9 mph 10.7 mph 73 % 0 in
05:03 35.1 °F 27.5 °F 29.9 in West 3.1 mph 6 mph 74 % 0 in
05:08 35.1 °F 27.5 °F 29.9 in NW 5.6 mph 7.8 mph 74 % 0 in
05:13 35.1 °F 27.5 °F 29.9 in WNW 5.6 mph 7.8 mph 74 % 0 in
05:18 35.2 °F 28 °F 29.9 in West 7.8 mph 7.8 mph 75 % 0 in
05:23 35.4 °F 28.2 °F 29.9 in WSW 3.6 mph 8.7 mph 75 % 0 in
05:28 35.4 °F 27.9 °F 29.9 in West 4.9 mph 8.7 mph 74 % 0 in
05:33 35.2 °F 27.7 °F 29.9 in NW 3.1 mph 7.6 mph 74 % 0 in
05:38 35.2 °F 28 °F 29.9 in North 5.4 mph 7.6 mph 75 % 0 in
05:43 35.4 °F 28.2 °F 29.9 in WNW 1.1 mph 6.7 mph 75 % 0 in
05:48 35.4 °F 28.2 °F 29.9 in WSW 3.1 mph 8.1 mph 75 % 0 in
05:53 35.4 °F 28.2 °F 30 in West 4.3 mph 10.1 mph 75 % 0 in
05:58 35.4 °F 28.2 °F 30 in WNW 2 mph 10.1 mph 75 % 0 in
06:03 35.2 °F 28.4 °F 30 in NW 6.5 mph 8.7 mph 76 % 0 in
06:08 35.2 °F 28.4 °F 30 in ENE 4.3 mph 8.7 mph 76 % 0 in
06:13 35.1 °F 28.2 °F 30 in WNW 4 mph 6.5 mph 76 % 0 in
06:18 34.9 °F 28 °F 30 in WNW 3.4 mph 6.3 mph 76 % 0 in
06:23 34.9 °F 28 °F 30 in WSW 3.8 mph 5.8 mph 76 % 0 in
06:28 34.5 °F 27.9 °F 30 in West 2.9 mph 5.6 mph 76 % 0 in
06:33 34.5 °F 27.9 °F 30 in NW 6.5 mph 7.2 mph 76 % 0 in
06:38 34.5 °F 28 °F 30 in WNW 5.6 mph 7.2 mph 77 % 0 in
06:43 34.5 °F 28 °F 30 in WNW 6.5 mph 7.2 mph 77 % 0 in
06:49 34.3 °F 27.9 °F 30 in West 3.1 mph 7.2 mph 77 % 0 in
06:54 34.3 °F 27.9 °F 30 in WNW 2.9 mph 6.3 mph 77 % 0 in
06:59 34.2 °F 27.7 °F 30 in West 4.3 mph 5.6 mph 77 % 0 in
07:04 34 °F 27.5 °F 30 in West 3.4 mph 7.2 mph 77 % 0 in
07:09 33.8 °F 27.3 °F 30 in West 1.3 mph 7.2 mph 77 % 0 in
07:14 33.8 °F 27.7 °F 30 in Calm   5.8 mph 78 % 0 in
07:19 33.6 °F 27.5 °F 30 in WSW 4.3 mph 5.8 mph 78 % 0 in
07:24 33.3 °F 27.1 °F 30 in West 4.7 mph 6 mph 78 % 0 in
07:29 33.1 °F 27.3 °F 30 in West 5.4 mph 7.6 mph 79 % 0 in
07:34 33.1 °F 27.3 °F 30 in SW 2.9 mph 8.1 mph 79 % 0 in
07:39 33.1 °F 27.7 °F 30 in West 3.1 mph 8.1 mph 80 % 0 in
07:44 32.9 °F 27.3 °F 30 in SSW 6.3 mph 7.4 mph 80 % 0 in
07:49 32.7 °F 27.5 °F 30 in WSW 5.4 mph 7.6 mph 81 % 0 in
07:54 32.7 °F 27.9 °F 30 in WNW 6.3 mph 7.8 mph 82 % 0 in
07:59 32.7 °F 28 °F 30 in West 6.5 mph 7.8 mph 83 % 0 in
08:04 32.5 °F 27.9 °F 30 in WSW 4 mph 7.4 mph 83 % 0 in
08:09 32.5 °F 27.9 °F 30 in West 2.7 mph 7.4 mph 83 % 0 in
08:14 32.4 °F 28 °F 30 in WSW 4.3 mph 6.5 mph 84 % 0 in
08:19 32.4 °F 28 °F 30 in SSW 5.4 mph 6.5 mph 84 % 0 in
08:24 32.2 °F 27.9 °F 30 in West 7.4 mph 7.4 mph 84 % 0 in
08:29 32.4 °F 28.2 °F 30 in West 7.6 mph 8.9 mph 85 % 0 in
08:34 32.5 °F 28.8 °F 30 in West 6.5 mph 10.3 mph 86 % 0 in
08:39 32.7 °F 29.3 °F 30 in WSW 8.7 mph 10.3 mph 87 % 0 in
08:44 32.9 °F 29.7 °F 30 in WSW 7.6 mph 10.1 mph 88 % 0 in
08:49 32.9 °F 29.7 °F 30 in WSW 5.4 mph 9.4 mph 88 % 0 in
08:54 32.9 °F 29.7 °F 30 in WSW 7.8 mph 8.5 mph 88 % 0 in
08:59 33.1 °F 29.8 °F 30 in WSW 7.4 mph 8.7 mph 88 % 0 in
09:04 33.3 °F 30.4 °F 30 in West 7.4 mph 10.5 mph 89 % 0 in
09:09 33.4 °F 30.7 °F 30 in West 8.5 mph 10.5 mph 90 % 0 in
09:14 33.6 °F 30.9 °F 30 in West 6.3 mph 9.6 mph 90 % 0 in
09:19 33.8 °F 31.1 °F 30 in West 10.3 mph 10.3 mph 90 % 0 in
09:24 34 °F 31.6 °F 30 in West 11 mph 11 mph 91 % 0 in
09:29 34.2 °F 31.8 °F 30 in West 8.9 mph 11 mph 91 % 0 in
09:34 34.3 °F 31.8 °F 30 in NW 6.3 mph 11 mph 91 % 0 in
09:39 34.5 °F 32.2 °F 30 in SSW 5.6 mph 11 mph 91 % 0 in
09:44 34.5 °F 32.4 °F 30 in NW 8.7 mph 10.5 mph 91 % 0 in
09:49 34.5 °F 32 °F 30 in West 4 mph 10.3 mph 90 % 0 in
09:54 34.5 °F 32 °F 30 in West 6.3 mph 9.4 mph 90 % 0 in
09:59 34.5 °F 32 °F 30 in West 4.9 mph 9.4 mph 90 % 0 in
10:04 34.5 °F 32 °F 30 in West 4 mph 8.9 mph 90 % 0 in
10:09 34.5 °F 32 °F 30 in West 7.8 mph 8.9 mph 90 % 0 in
10:14 34.9 °F 32.2 °F 30 in West 8.1 mph 8.5 mph 90 % 0 in
10:19 34.9 °F 32.2 °F 30 in WSW 7.8 mph 9.6 mph 90 % 0 in
10:24 34.9 °F 32.5 °F 30 in WSW 7.2 mph 9.6 mph 91 % 0 in
10:29 35.1 °F 32.4 °F 30 in WSW 6.7 mph 9.6 mph 90 % 0 in
10:34 35.1 °F 32.5 °F 30 in West 8.1 mph 9.8 mph 91 % 0 in
10:40 35.2 °F 32.7 °F 30 in West 7.2 mph 9.8 mph 91 % 0 in
10:45 35.4 °F 33.1 °F 30 in WSW 5.6 mph 8.7 mph 91 % 0 in
10:50 35.4 °F 33.1 °F 30 in WSW 6 mph 8.5 mph 91 % 0 in
10:54 35.4 °F 33.1 °F 30 in WSW 8.5 mph 8.7 mph 91 % 0 in
11:00 35.4 °F 33.1 °F 30 in WSW 6 mph 12.3 mph 91 % 0 in
11:04 35.4 °F 33.3 °F 30 in West 6.5 mph 12.3 mph 91 % 0 in
11:09 35.8 °F 33.3 °F 30 in West 7.4 mph 10.7 mph 91 % 0 in
11:14 36 °F 33.4 °F 30 in West 7.8 mph 10.7 mph 91 % 0 in
11:20 36 °F 33.4 °F 30 in West 6.3 mph 10.7 mph 91 % 0 in
11:24 36.1 °F 33.6 °F 30 in West 10.1 mph 11.2 mph 91 % 0 in
11:29 36.1 °F 34 °F 30 in West 8.1 mph 11.2 mph 91 % 0 in
11:34 36.3 °F 34 °F 30 in West 7.4 mph 10.3 mph 91 % 0 in
11:40 36.3 °F 34 °F 30 in WSW 7.2 mph 10.3 mph 91 % 0 in
11:45 36.1 °F 34 °F 30 in West 5.6 mph 10.3 mph 91 % 0 in
11:50 36.1 °F 34 °F 30 in West 8.5 mph 10.1 mph 91 % 0 in
11:55 36.3 °F 34 °F 30 in WSW 6.5 mph 8.7 mph 91 % 0 in
12:00 36.7 °F 34.5 °F 30 in WSW 6 mph 8.7 mph 92 % 0 in
12:05 36.7 °F 34.5 °F 30 in WSW 9.8 mph 10.1 mph 92 % 0 in
12:10 36.9 °F 34.9 °F 30 in West 8.5 mph 10.1 mph 93 % 0 in
12:15 37 °F 35.2 °F 30 in West 7.4 mph 10.1 mph 93 % 0 in
12:20 37.2 °F 35.4 °F 30 in West 9.6 mph 11 mph 93 % 0 in
12:25 37.6 °F 35.6 °F 30 in West 4.9 mph 11 mph 93 % 0 in
12:30 38.7 °F 37 °F 30 in West 8.7 mph 10.1 mph 94 % 0 in
12:35 39.2 °F 37.8 °F 30 in West 8.5 mph 10.1 mph 94 % 0 in
12:40 39.7 °F 38.1 °F 30 in West 7.6 mph 10.5 mph 94 % 0 in
12:45 39.7 °F 37.9 °F 30 in WSW 8.7 mph 12.3 mph 93 % 0 in
12:50 39.6 °F 37.6 °F 30 in West 3.1 mph 12.3 mph 92 % 0 in
12:55 39.6 °F 37.2 °F 30 in WNW 4.3 mph 10.7 mph 91 % 0 in
13:00 39.9 °F 37.6 °F 30 in NE 4.9 mph 8.5 mph 91 % 0 in
13:05 40.3 °F 37.9 °F 30 in NNE 4.9 mph 8.5 mph 91 % 0 in
13:10 41 °F 38.3 °F 30 in West 5.8 mph 8.5 mph 90 % 0 in
13:15 41 °F 37.4 °F 30 in WNW 5.4 mph 8.5 mph 87 % 0 in
13:20 41.2 °F 36.7 °F 30 in NNW 7.8 mph 10.3 mph 84 % 0 in
13:25 41.7 °F 36.9 °F 30 in NNW 4.3 mph 13.2 mph 83 % 0 in
13:30 41.7 °F 35.2 °F 30 in West 8.1 mph 13.2 mph 78 % 0 in
13:35 41.9 °F 35.2 °F 30 in NW 8.1 mph 10.7 mph 77 % 0 in
13:40 41.4 °F 34 °F 30 in North 3.1 mph 10.7 mph 75 % 0 in
13:45 41 °F 33.6 °F 30 in NW 3.8 mph 11 mph 75 % 0 in
13:50 41.9 °F 34.5 °F 30 in ENE 6.3 mph 11 mph 75 % 0 in
13:55 42.4 °F 34.7 °F 30 in West 5.4 mph 13.2 mph 74 % 0 in
14:00 42.8 °F 34.7 °F 30 in WNW 3.1 mph 13.2 mph 73 % 0 in
14:05 42.3 °F 33.1 °F 30 in WNW 5.8 mph 10.7 mph 70 % 0 in
14:10 41.7 °F 32.5 °F 30 in NNW 6 mph 10.7 mph 70 % 0 in
14:15 41.5 °F 32.7 °F 30 in NNE 4.3 mph 10.3 mph 71 % 0 in
14:20 41.5 °F 33.3 °F 30 in West 7.2 mph 9.8 mph 72 % 0 in
14:25 41.4 °F 33.1 °F 30 in NW 4.7 mph 9.8 mph 72 % 0 in
14:30 41.4 °F 33.3 °F 30 in North 4.7 mph 9.8 mph 73 % 0 in
14:35 41.4 °F 33.3 °F 30 in NNW 3.4 mph 9.4 mph 73 % 0 in
14:40 41.4 °F 33.6 °F 30 in NNW 7.8 mph 9.6 mph 74 % 0 in
14:46 41.4 °F 33.6 °F 30 in NNW 8.7 mph 9.8 mph 74 % 0 in
14:51 41.4 °F 33.6 °F 30 in North 3.6 mph 12.5 mph 74 % 0 in
14:56 41.7 °F 34 °F 30 in NNW 4.9 mph 12.5 mph 74 % 0 in
15:01 42.3 °F 34.2 °F 30 in East 3.1 mph 11.9 mph 73 % 0 in
15:06 42.1 °F 34 °F 30 in North 2.9 mph 11.9 mph 73 % 0 in
15:11 41.9 °F 33.4 °F 30 in WNW 2.9 mph 10.7 mph 72 % 0 in
15:16 41.7 °F 33.3 °F 30 in West 3.6 mph 10.7 mph 72 % 0 in
15:21 41.5 °F 32.7 °F 30 in West 3.1 mph 11 mph 71 % 0 in
15:26 41.4 °F 33.1 °F 30 in WNW 7.2 mph 11 mph 72 % 0 in
15:31 41.4 °F 33.3 °F 30 in West 4.7 mph 14.3 mph 73 % 0 in
15:36 41.9 °F 34 °F 30 in NNW 2.7 mph 14.3 mph 73 % 0 in
15:41 42.1 °F 34 °F 30 in NNW 12.5 mph 12.5 mph 73 % 0 in
15:46 42.1 °F 34 °F 30 in NE 7.2 mph 12.5 mph 73 % 0 in
15:51 42.1 °F 33.6 °F 30 in North 5.8 mph 8.5 mph 72 % 0 in
15:56 41.9 °F 34 °F 30 in NNW 10.3 mph 10.3 mph 73 % 0 in
16:01 41.9 °F 33.4 °F 30 in NNW 7.6 mph 10.5 mph 72 % 0 in
16:06 41.9 °F 33.4 °F 30 in North 4 mph 10.5 mph 72 % 0 in
16:11 41.9 °F 33.3 °F 30 in WNW 5.6 mph 10.3 mph 71 % 0 in
16:16 41.4 °F 32.4 °F 30 in WNW 4 mph 12.5 mph 70 % 0 in
16:21 41 °F 32.4 °F 30 in NNW 4.3 mph 12.5 mph 71 % 0 in
16:26 40.8 °F 32.5 °F 30 in NW 2.9 mph 8.1 mph 72 % 0 in
16:31 40.6 °F 32.4 °F 30 in WNW 3.1 mph 8.1 mph 72 % 0 in
16:36 40.5 °F 32.5 °F 30 in NW 5.8 mph 6.3 mph 73 % 0 in
16:41 40.3 °F 32.4 °F 30 in Calm   6.3 mph 73 % 0 in
16:42 40.3 °F 32.7 °F 30 in NNW 1.3 mph 6.3 mph 74 % 0 in
16:47 40.3 °F 32.7 °F 30 in NNW 10.1 mph 10.1 mph 74 % 0 in
16:52 40.3 °F 32.7 °F 30 in NW 3.6 mph 10.1 mph 74 % 0 in
16:57 40.1 °F 32.5 °F 30 in NNW 5.4 mph 8.7 mph 74 % 0 in
17:02 39.9 °F 32.4 °F 30 in NNW 4 mph 8.7 mph 74 % 0 in
17:07 39.7 °F 32.2 °F 30 in North 2 mph 8.5 mph 74 % 0 in
17:12 39.6 °F 32 °F 30 in NNW 5.6 mph 8.5 mph 74 % 0 in
17:17 39.2 °F 31.6 °F 30 in NW 2.7 mph 8.7 mph 74 % 0 in
17:22 39 °F 31.5 °F 30 in NNW 5.8 mph 8.7 mph 74 % 0 in
17:27 39 °F 31.5 °F 30 in WNW 2.9 mph 8.7 mph 74 % 0 in
17:32 38.8 °F 31.6 °F 30 in WNW 5.4 mph 8.7 mph 75 % 0 in
17:37 38.7 °F 31.5 °F 30 in WSW 4 mph 7.2 mph 75 % 0 in
17:42 38.5 °F 30.9 °F 30 in WNW 0.9 mph 7.2 mph 74 % 0 in
17:47 38.5 °F 31.3 °F 30 in WNW 5.8 mph 6.3 mph 75 % 0 in
17:53 38.5 °F 31.3 °F 30.1 in Calm   6.3 mph 75 % 0 in
17:58 38.5 °F 31.3 °F 30.1 in Calm   5.8 mph 75 % 0 in
18:03 38.5 °F 31.3 °F 30.1 in West 2 mph 6.5 mph 75 % 0 in
18:08 38.5 °F 31.3 °F 30.1 in Calm   6.5 mph 75 % 0 in
18:13 38.5 °F 31.1 °F 30.1 in Calm   4 mph 75 % 0 in
18:18 38.1 °F 30.9 °F 30.1 in West 2 mph 6.5 mph 75 % 0 in
18:23 38.1 °F 31.3 °F 30.1 in WNW 2 mph 9.8 mph 76 % 0 in
18:28 38.5 °F 31.5 °F 30.1 in WNW 3.6 mph 9.8 mph 76 % 0 in
18:33 38.5 °F 31.5 °F 30.1 in NW 3.1 mph 8.1 mph 76 % 0 in
18:38 38.1 °F 31.3 °F 30.1 in NNE 3.4 mph 6.5 mph 76 % 0 in
18:43 37.9 °F 31.1 °F 30.1 in Calm   6.5 mph 76 % 0 in
18:48 37.6 °F 31.1 °F 30.1 in North 5.6 mph 5.6 mph 77 % 0 in
18:53 37.6 °F 31.5 °F 30.1 in NE 6.3 mph 8.5 mph 79 % 0 in
18:58 37.6 °F 32.2 °F 30.1 in North 4.3 mph 9.4 mph 81 % 0 in
19:03 37.2 °F 32 °F 30.1 in Calm   9.4 mph 81 % 0 in
19:08 37 °F 32.2 °F 30.1 in Calm   6.3 mph 82 % 0 in
19:13 36.9 °F 32 °F 30.1 in NW 3.4 mph 3.4 mph 82 % 0 in
19:18 36.9 °F 32 °F 30.1 in Calm   3.4 mph 82 % 0 in
19:23 36.9 °F 32.4 °F 30.1 in NNE 1.3 mph 2.7 mph 83 % 0 in
19:28 36.9 °F 32.4 °F 30.1 in North 1.6 mph 5.4 mph 83 % 0 in
19:33 36.9 °F 32.5 °F 30.1 in WNW 1.3 mph 5.4 mph 84 % 0 in
19:38 36.9 °F 32.4 °F 30.1 in Calm   5.4 mph 84 % 0 in
19:43 36.7 °F 31.8 °F 30.1 in Calm   2.5 mph 83 % 0 in
19:48 36.3 °F 31.6 °F 30.1 in Calm   2.5 mph 83 % 0 in
19:53 36.1 °F 31.6 °F 30.1 in Calm   2.5 mph 83 % 0 in
19:58 36.1 °F 31.5 °F 30.1 in Calm     83 % 0 in
20:04 36 °F 31.3 °F 30.1 in Calm     83 % 0 in
20:09 35.4 °F 30.9 °F 30.1 in Calm     83 % 0 in
20:14 35.2 °F 30.6 °F 30.1 in Calm     83 % 0 in
20:19 34.9 °F 30.6 °F 30.1 in Calm     84 % 0 in
20:24 34.9 °F 30.6 °F 30.1 in Calm     84 % 0 in
20:29 34.9 °F 30.6 °F 30.1 in Calm   3.4 mph 84 % 0 in
20:34 34.5 °F 30 °F 30.1 in Calm   3.4 mph 84 % 0 in
20:39 34.5 °F 30.4 °F 30.1 in Calm   3.4 mph 85 % 0 in
20:44 34.3 °F 30.4 °F 30.1 in Calm   3.6 mph 85 % 0 in
20:49 34.5 °F 30.4 °F 30.1 in WSW 4 mph 4 mph 85 % 0 in
20:54 35.1 °F 31.3 °F 30.1 in West 1.6 mph 5.6 mph 86 % 0 in
20:59 35.4 °F 31.6 °F 30.1 in ESE 4 mph 5.8 mph 86 % 0 in
21:04 35.4 °F 31.5 °F 30.1 in NW 1.3 mph 6.9 mph 85 % 0 in
21:09 36 °F 31.5 °F 30.1 in West 5.8 mph 6.9 mph 84 % 0 in
21:14 36 °F 31.3 °F 30.1 in Calm   7.2 mph 83 % 0 in
21:19 36.1 °F 31.5 °F 30.1 in WNW 2.9 mph 7.6 mph 83 % 0 in
21:24 36.1 °F 31.1 °F 30.1 in NNW 2 mph 7.6 mph 82 % 0 in
21:29 36.1 °F 31.3 °F 30.1 in WSW 2.5 mph 6.3 mph 82 % 0 in
21:34 36.3 °F 31.1 °F 30.1 in North 3.6 mph 6.3 mph 81 % 0 in
21:39 36.1 °F 30.7 °F 30.1 in WNW 0.9 mph 4.9 mph 80 % 0 in
21:44 36.3 °F 30.7 °F 30.1 in West 3.6 mph 4.9 mph 80 % 0 in
21:49 36.7 °F 30.9 °F 30.1 in West 2.5 mph 4.3 mph 80 % 0 in
21:54 36.7 °F 30.9 °F 30.1 in WNW 3.4 mph 5.4 mph 80 % 0 in
21:59 36.7 °F 30.7 °F 30.1 in WNW 4.9 mph 6.9 mph 79 % 0 in
22:04 36.7 °F 30.7 °F 30.1 in WNW 0.9 mph 6.9 mph 79 % 0 in
22:09 36.7 °F 30.7 °F 30.1 in SW 3.1 mph 7.2 mph 79 % 0 in
22:14 36.7 °F 30.7 °F 30.1 in West 3.1 mph 7.2 mph 79 % 0 in
22:19 36.9 °F 30.9 °F 30.1 in WNW 5.6 mph 6.5 mph 79 % 0 in
22:24 36.9 °F 30.9 °F 30.1 in SW 5.6 mph 6.7 mph 79 % 0 in
22:29 36 °F 29.7 °F 30.1 in WSW 5.6 mph 8.5 mph 78 % 0 in
22:34 35.2 °F 28.9 °F 30.1 in West 3.4 mph 8.5 mph 78 % 0 in
22:39 34.5 °F 28.6 °F 30.1 in WSW 6 mph 7.8 mph 78 % 0 in
22:44 34.3 °F 28.6 °F 30.1 in WSW 5.8 mph 7.6 mph 79 % 0 in
22:49 34.3 °F 28.6 °F 30.1 in West 4.9 mph 6.5 mph 79 % 0 in
22:54 34.3 °F 29.1 °F 30.1 in West 2.9 mph 6.3 mph 81 % 0 in
22:59 34.3 °F 29.1 °F 30.1 in West 4.3 mph 6.3 mph 81 % 0 in
23:04 34.2 °F 29.1 °F 30.1 in WSW 5.8 mph 6 mph 82 % 0 in
23:09 34.2 °F 29.5 °F 30.1 in West 4.3 mph 5.8 mph 83 % 0 in
23:10 34.2 °F 29.5 °F 30.1 in West 3.4 mph 5.8 mph 83 % 0 in
23:15 34.2 °F 29.5 °F 30.1 in WSW 1.1 mph 4.9 mph 83 % 0 in
23:20 34 °F 29.3 °F 30.1 in Calm   2.9 mph 83 % 0 in
23:25 33.6 °F 29.3 °F 30.1 in Calm   1.1 mph 84 % 0 in
23:30 33.3 °F 28.9 °F 30.1 in Calm     84 % 0 in
23:35 33.1 °F 28.8 °F 30.1 in WSW 1.6 mph 2.7 mph 84 % 0 in
23:40 32.7 °F 28.4 °F 30.1 in Calm   2.7 mph 84 % 0 in
23:45 32.7 °F 28.8 °F 30.1 in West 1.6 mph 2.7 mph 85 % 0 in
23:50 33.1 °F 29.3 °F 30.1 in East 1.6 mph 4.9 mph 86 % 0 in
23:55 33.3 °F 30 °F 30.1 in Calm   5.8 mph 88 % 0 in
Le Gheer Warneton
Courtoisie de Weather Underground - 2.25 mb

Mise a jour : 17-12-17 02:59:12
Généré par Cumulus 1.9.4 (1099)